�������l�o���
Date,Time,MP-1(��Sv/h),MP-2(��Sv/h),MP-3(��Sv/h),MP-4(��Sv/h),MP-5(��Sv/h),MP-6(��Sv/h),MP-7(��Sv/h),MP-8(��Sv/h),����,����(m/s),���J
2018/10/24,00:00,0.797,1.203,0.847,1.510,1.090,0.463,0.812,0.771,�k�k��,2.3,��
2018/10/24,00:10,0.797,1.207,0.849,1.512,1.092,0.465,0.814,0.770,�k�k��,2.3,��
2018/10/24,00:20,0.797,1.207,0.849,1.511,1.087,0.464,0.815,0.771,�k,3.7,��
2018/10/24,00:30,0.795,1.206,0.849,1.515,1.090,0.463,0.815,0.772,�k�k��,3.6,��
2018/10/24,00:40,0.799,1.205,0.846,1.513,1.088,0.464,0.813,0.770,�k�k��,4.0,��
2018/10/24,00:50,0.798,1.204,0.848,1.514,1.092,0.464,0.814,0.771,�k�k��,4.2,��
2018/10/24,01:00,0.798,1.205,0.848,1.514,1.090,0.464,0.813,0.771,�k�k��,4.2,��
2018/10/24,01:10,0.798,1.204,0.848,1.511,1.092,0.464,0.814,0.771,�k��,4.0,��
2018/10/24,01:20,0.797,1.204,0.848,1.513,1.090,0.465,0.813,0.771,�k�k��,4.1,�L
2018/10/24,01:30,0.798,1.208,0.847,1.514,1.092,0.463,0.811,0.771,�k��,4.3,�L
2018/10/24,01:40,0.797,1.204,0.847,1.505,1.089,0.463,0.814,0.770,�k��,4.4,�L
2018/10/24,01:50,0.783,1.175,0.836,1.466,1.081,0.465,0.814,0.772,�k�k��,4.3,�L
2018/10/24,02:00,0.784,1.174,0.835,1.472,1.085,0.464,0.814,0.771,�k�k��,5.6,�L
2018/10/24,02:10,0.784,1.173,0.837,1.473,1.082,0.465,0.815,0.772,�k��,7.0,��
2018/10/24,02:20,0.784,1.174,0.835,1.475,1.082,0.464,0.812,0.771,�k��,6.5,�L
2018/10/24,02:30,0.783,1.172,0.835,1.473,1.081,0.465,0.815,0.770,�k��,6.1,�L
2018/10/24,02:40,0.783,1.173,0.834,1.472,1.081,0.464,0.813,0.771,�k��,5.3,�L
2018/10/24,02:50,0.781,1.173,0.834,1.471,1.080,0.465,0.814,0.772,���k��,5.0,�L
2018/10/24,03:00,0.779,1.170,0.831,1.469,1.077,0.465,0.814,0.772,���k��,4.6,�L
2018/10/24,03:10,0.778,1.169,0.832,1.467,1.077,0.466,0.814,0.771,���k��,4.7,�L
2018/10/24,03:20,0.778,1.164,0.829,1.465,1.075,0.465,0.811,0.768,�k��,5.7,�L
2018/10/24,03:30,0.779,1.164,0.830,1.464,1.075,0.465,0.809,0.770,���k��,5.6,�L
2018/10/24,03:40,0.778,1.162,0.830,1.462,1.070,0.465,0.810,0.766,�k��,3.7,�L
2018/10/24,03:50,0.775,1.160,0.827,1.459,1.069,0.464,0.809,0.766,���k��,3.8,�L
2018/10/24,04:00,0.773,1.157,0.827,1.456,1.061,0.463,0.806,0.765,���k��,4.4,�L
2018/10/24,04:10,0.774,1.156,0.827,1.455,1.065,0.463,0.806,0.762,�k��,3.5,�L
2018/10/24,04:20,0.774,1.157,0.825,1.454,1.061,0.461,0.804,0.764,���k��,2.9,�L
2018/10/24,04:30,0.774,1.158,0.826,1.453,1.064,0.461,0.808,0.762,���k��,2.5,�L
2018/10/24,04:40,0.773,1.157,0.824,1.454,1.062,0.462,0.806,0.764,�k��,1.5,�L
2018/10/24,04:50,0.774,1.159,0.823,1.453,1.060,0.462,0.805,0.764,���k��,1.5,�L
2018/10/24,05:00,0.773,1.158,0.824,1.453,1.062,0.459,0.804,0.765,���k��,2.5,�L
2018/10/24,05:10,0.773,1.157,0.824,1.452,1.062,0.462,0.804,0.766,�k��,2.3,�L
2018/10/24,05:20,0.773,1.157,0.824,1.453,1.061,0.462,0.805,0.764,�k�k��,2.6,�L
2018/10/24,05:30,0.773,1.156,0.825,1.453,1.059,0.459,0.806,0.762,�k�k��,3.2,�L
2018/10/24,05:40,0.772,1.155,0.822,1.453,1.059,0.461,0.805,0.763,�k�k��,4.8,�L
2018/10/24,05:50,0.772,1.155,0.822,1.451,1.061,0.459,0.806,0.762,�k,4.0,�L
2018/10/24,06:00,0.772,1.157,0.824,1.451,1.059,0.459,0.804,0.762,�k�k��,3.6,�L
2018/10/24,06:10,0.771,1.158,0.822,1.451,1.062,0.458,0.805,0.761,�k�k��,3.5,�L
2018/10/24,06:20,0.772,1.155,0.821,1.450,1.060,0.459,0.805,0.762,�k��,3.5,�L
2018/10/24,06:30,0.769,1.156,0.821,1.455,1.060,0.459,0.805,0.762,�k��,3.7,�L
2018/10/24,06:40,0.772,1.154,0.822,1.450,1.057,0.460,0.804,0.763,�k��,4.2,�L
2018/10/24,06:50,0.770,1.153,0.822,1.449,1.059,0.460,0.804,0.763,�k��,3.2,�L
2018/10/24,07:00,0.772,1.154,0.822,1.449,1.058,0.459,0.805,0.765,�k��,2.8,�L
2018/10/24,07:10,0.770,1.152,0.822,1.451,1.057,0.460,0.805,0.762,�k��,1.5,��
2018/10/24,07:20,0.770,1.153,0.822,1.451,1.058,0.459,0.804,0.763,�k�k��,2.2,��
2018/10/24,07:30,0.769,1.153,0.820,1.452,1.059,0.459,0.804,0.763,�k��,3.0,��
2018/10/24,07:40,0.771,1.154,0.819,1.451,1.058,0.458,0.804,0.763,�k��,3.3,�L
2018/10/24,07:50,0.772,1.156,0.823,1.452,1.058,0.459,0.803,0.764,�k,2.5,�L
2018/10/24,08:00,0.770,1.154,0.820,1.449,1.054,0.459,0.804,0.761,�k�k��,3.3,�L
2018/10/24,08:10,0.772,1.154,0.820,1.450,1.055,0.458,0.803,0.761,�k��,3.8,�L
2018/10/24,08:20,0.771,1.154,0.820,1.449,1.055,0.458,0.802,0.761,�k�k��,3.7,�L
2018/10/24,08:30,0.769,1.150,0.820,1.450,1.055,0.458,0.804,0.761,�k�k��,3.6,�L
2018/10/24,08:40,0.770,1.153,0.820,1.450,1.055,0.459,0.803,0.761,�k�k��,3.4,�L
2018/10/24,08:50,0.770,1.154,0.820,1.448,1.057,0.459,0.803,0.760,�k��,2.9,��
2018/10/24,09:00,0.769,1.151,0.819,1.451,1.055,0.458,0.802,0.760,�k�k��,2.9,�L
2018/10/24,09:10,0.772,1.151,0.819,1.451,1.060,0.457,0.803,0.760,�k�k��,2.6,�L
2018/10/24,09:20,0.772,1.152,0.822,1.451,1.058,0.458,0.805,0.762,�k�k��,3.1,��
2018/10/24,09:30,0.772,1.152,0.822,1.452,1.055,0.457,0.803,0.760,�k,2.6,��
2018/10/24,09:40,0.770,1.151,0.820,1.454,1.056,0.458,0.804,0.761,�k,2.5,��
2018/10/24,09:50,0.772,1.152,0.823,1.454,1.056,0.458,0.803,0.760,�k�k��,3.3,�L
2018/10/24,10:00,0.771,1.149,0.822,1.453,1.059,0.457,0.804,0.761,�k�k��,2.9,�L
2018/10/24,10:10,0.771,1.149,0.822,1.453,1.055,0.458,0.804,0.761,�k,3.0,�L
2018/10/24,10:20,0.771,1.149,0.824,1.456,1.057,0.458,0.804,0.759,�k�k��,3.5,�L
2018/10/24,10:30,0.773,1.149,0.819,1.453,1.056,0.457,0.804,0.760,�k��,3.3,�L
2018/10/24,10:40,0.771,1.151,0.823,1.454,1.060,0.457,0.805,0.761,�k�k��,4.4,�L
2018/10/24,10:50,0.773,1.153,0.822,1.455,1.059,0.457,0.804,0.761,�k,4.6,�L
2018/10/24,11:00,0.772,1.151,0.823,1.456,1.057,0.455,0.804,0.761,�k��,3.9,�L
2018/10/24,11:10,0.772,1.154,0.822,1.457,1.057,0.457,0.806,0.762,�k��,3.4,�L
2018/10/24,11:20,0.773,1.155,0.823,1.455,1.059,0.458,0.806,0.761,�k�k��,1.7,�L
2018/10/24,11:30,0.773,1.151,0.824,1.457,1.059,0.458,0.806,0.762,�k�k��,1.9,��
2018/10/24,11:40,0.774,1.155,0.824,1.454,1.058,0.458,0.805,0.761,�k,1.7,��
2018/10/24,11:50,0.773,1.155,0.823,1.455,1.057,0.457,0.808,0.764,�k,2.2,��
2018/10/24,12:00,0.774,1.155,0.822,1.458,1.060,0.457,0.805,0.763,�k,1.7,��
2018/10/24,12:10,0.774,1.155,0.821,1.457,1.059,0.458,0.809,0.761,�k,2.5,��
2018/10/24,12:20,0.774,1.156,0.823,1.459,1.062,0.457,0.808,0.762,�k,2.5,��
2018/10/24,12:30,0.772,1.155,0.825,1.458,1.061,0.457,0.808,0.761,�k,2.6,��
2018/10/24,12:40,0.773,1.156,0.823,1.460,1.062,0.456,0.808,0.762,�k�k��,2.8,��
2018/10/24,12:50,0.774,1.156,0.824,1.460,1.065,0.458,0.808,0.762,�k�k��,3.5,��
2018/10/24,13:00,0.774,1.158,0.825,1.460,1.066,0.457,0.808,0.762,�k�k��,3.5,��
2018/10/24,13:10,0.773,1.157,0.822,1.460,1.063,0.456,0.809,0.763,�k�k��,4.0,��
2018/10/24,13:20,0.775,1.159,0.822,1.459,1.063,0.456,0.808,0.763,�k�k��,4.3,��
2018/10/24,13:30,0.776,1.158,0.822,1.459,1.066,0.458,0.810,0.763,�k�k��,4.8,��
2018/10/24,13:40,0.774,1.158,0.825,1.458,1.064,0.457,0.809,0.764,�k�k��,5.2,��
2018/10/24,13:50,0.775,1.158,0.824,1.459,1.063,0.458,0.809,0.762,�k��,4.8,��
2018/10/24,14:00,0.777,1.156,0.823,1.458,1.065,0.457,0.807,0.761,�k�k��,4.8,��
2018/10/24,14:10,0.774,1.158,0.824,1.457,1.065,0.457,0.808,0.763,�k�k��,3.6,�L
2018/10/24,14:20,0.774,1.159,0.824,1.458,1.062,0.457,0.808,0.762,�k,3.0,�L
2018/10/24,14:30,0.773,1.155,0.825,1.458,1.065,0.457,0.810,0.761,�k,2.9,�L
2018/10/24,14:40,0.776,1.157,0.823,1.459,1.066,0.460,0.808,0.762,�k,3.4,��
2018/10/24,14:50,0.774,1.159,0.821,1.461,1.066,0.458,0.807,0.762,�k,2.6,��
2018/10/24,15:00,0.775,1.158,0.824,1.460,1.066,0.460,0.809,0.762,�k,2.9,�L
2018/10/24,15:10,0.775,1.159,0.824,1.462,1.063,0.460,0.806,0.761,�k,2.5,��
2018/10/24,15:20,0.776,1.161,0.826,1.461,1.066,0.459,0.806,0.763,�k,2.0,��
2018/10/24,15:30,0.775,1.163,0.826,1.462,1.067,0.460,0.809,0.761,�k�k��,3.1,��
2018/10/24,15:40,0.774,1.164,0.826,1.462,1.067,0.460,0.808,0.764,�k�k��,2.6,��
2018/10/24,15:50,0.774,1.164,0.828,1.459,1.068,0.461,0.806,0.764,�k,1.5,��
2018/10/24,16:00,0.775,1.164,0.826,1.461,1.069,0.460,0.810,0.762,�k�k��,1.9,��
2018/10/24,16:10,0.775,1.167,0.828,1.462,1.069,0.461,0.808,0.763,�k�k��,1.7,��
2018/10/24,16:20,0.778,1.168,0.826,1.463,1.068,0.459,0.810,0.765,�k�k��,2.8,��
2018/10/24,16:30,0.777,1.169,0.828,1.463,1.067,0.460,0.807,0.763,�k�k��,3.0,��
2018/10/24,16:40,0.779,1.169,0.827,1.459,1.070,0.459,0.810,0.765,�k�k��,3.3,��
2018/10/24,16:50,0.778,1.169,0.827,1.460,1.065,0.461,0.809,0.764,�k�k��,3.4,��
2018/10/24,17:00,0.777,1.168,0.826,1.462,1.068,0.460,0.808,0.764,�k,3.9,��
2018/10/24,17:10,0.778,1.169,0.827,1.463,1.067,0.459,0.808,0.764,�k,5.9,��
2018/10/24,17:20,0.778,1.170,0.829,1.460,1.067,0.461,0.807,0.767,�k,5.7,��
2018/10/24,17:30,0.776,1.170,0.829,1.461,1.069,0.461,0.807,0.766,�k,5.1,��
2018/10/24,17:40,0.779,1.169,0.828,1.462,1.069,0.461,0.809,0.764,�k,5.4,��
2018/10/24,17:50,0.776,1.167,0.827,1.463,1.067,0.460,0.809,0.765,�k,5.3,��
2018/10/24,18:00,0.777,1.169,0.828,1.462,1.070,0.460,0.807,0.765,�k,4.4,��
2018/10/24,18:10,0.778,1.169,0.827,1.462,1.069,0.460,0.809,0.765,�k�k��,4.0,��
2018/10/24,18:20,0.777,1.170,0.827,1.462,1.066,0.459,0.809,0.765,�k�k��,4.6,��
2018/10/24,18:30,0.779,1.170,0.829,1.462,1.069,0.460,0.810,0.765,�k�k��,5.4,��
2018/10/24,18:40,0.777,1.169,0.827,1.460,1.068,0.460,0.808,0.764,�k��,5.0,��
2018/10/24,18:50,0.779,1.168,0.829,1.461,1.069,0.460,0.809,0.766,�k�k��,6.1,��
2018/10/24,19:00,0.779,1.168,0.826,1.460,1.067,0.461,0.810,0.763,�k��,5.6,��
2018/10/24,19:10,0.776,1.166,0.828,1.461,1.070,0.460,0.808,0.764,�k��,5.8,��
2018/10/24,19:20,0.778,1.169,0.828,1.461,1.070,0.460,0.809,0.765,�k�k��,6.4,��
2018/10/24,19:30,0.778,1.168,0.825,1.462,1.069,0.461,0.808,0.763,�k�k��,5.9,��
2018/10/24,19:40,0.777,1.171,0.826,1.462,1.068,0.458,0.809,0.763,�k�k��,6.1,��
2018/10/24,19:50,0.776,1.170,0.827,1.460,1.069,0.459,0.810,0.763,�k��,5.7,��
2018/10/24,20:00,0.777,1.168,0.825,1.458,1.067,0.458,0.808,0.764,�k��,5.4,��
2018/10/24,20:10,0.777,1.167,0.825,1.463,1.071,0.459,0.808,0.765,�k��,4.9,��
2018/10/24,20:20,0.778,1.169,0.829,1.459,1.067,0.459,0.811,0.763,�k��,5.8,��
2018/10/24,20:30,0.777,1.169,0.828,1.463,1.067,0.459,0.809,0.764,�k��,5.6,��
2018/10/24,20:40,0.777,1.167,0.828,1.462,1.068,0.457,0.808,0.764,�k��,6.1,��
2018/10/24,20:50,0.777,1.169,0.828,1.465,1.067,0.459,0.808,0.764,�k��,6.6,��
2018/10/24,21:00,0.775,1.166,0.827,1.464,1.068,0.459,0.809,0.764,�k��,7.4,��
2018/10/24,21:10,0.777,1.169,0.827,1.466,1.067,0.458,0.810,0.764,�k��,7.6,��
2018/10/24,21:20,0.778,1.170,0.830,1.465,1.067,0.460,0.808,0.764,�k��,7.1,��
2018/10/24,21:30,0.776,1.168,0.827,1.464,1.066,0.459,0.809,0.764,�k��,7.5,��
2018/10/24,21:40,0.776,1.171,0.827,1.465,1.066,0.458,0.810,0.766,�k��,8.0,��
2018/10/24,21:50,0.778,1.170,0.828,1.465,1.064,0.459,0.810,0.764,�k��,7.7,��
2018/10/24,22:00,0.776,1.172,0.827,1.463,1.069,0.457,0.808,0.764,�k��,7.7,��
2018/10/24,22:10,0.776,1.170,0.827,1.463,1.067,0.459,0.809,0.763,�k��,7.9,��
2018/10/24,22:20,0.776,1.167,0.826,1.463,1.067,0.459,0.810,0.765,�k�k��,7.2,��
2018/10/24,22:30,0.777,1.168,0.827,1.464,1.068,0.459,0.811,0.763,�k��,7.1,��
2018/10/24,22:40,0.776,1.166,0.826,1.466,1.068,0.458,0.807,0.765,�k�k��,7.0,��
2018/10/24,22:50,0.776,1.169,0.826,1.463,1.066,0.460,0.809,0.766,�k�k��,6.8,��
2018/10/24,23:00,0.775,1.169,0.827,1.462,1.065,0.458,0.809,0.764,�k��,6.9,��
2018/10/24,23:10,0.776,1.167,0.826,1.465,1.067,0.458,0.810,0.766,�k�k��,6.5,��
2018/10/24,23:20,0.776,1.168,0.827,1.464,1.069,0.459,0.809,0.764,�k�k��,6.6,��
2018/10/24,23:30,0.778,1.170,0.828,1.463,1.067,0.458,0.809,0.764,�k�k��,6.9,��
2018/10/24,23:40,0.776,1.168,0.828,1.468,1.068,0.458,0.811,0.765,�k��,6.6,��
2018/10/24,23:50,0.776,1.166,0.827,1.464,1.067,0.458,0.810,0.764,�k��,7.4,��
